Current weather by "City, St" or "zip code"  
 

Current Conditions: St. Louis, Spirit Of St. Louis Airport, MO

Rain Fog/Mist


51.0 F

Last Updated on Feb 27 2021, 11:54 pm CST
Humidity: 89%
Wind Speed: E 3.5 mph
Barometer 29.84 in
Dewpoint: 48.0 F
Visibility: 6.00 mi
Precip: 00.06 in
Heat Index: NA
Wind Chill: NA
Current conditions at:

St. Louis, Spirit Of St. Louis Airport, MO (KSUS)

Lat: 38.65722 Lon: 90.65583

Local Radar Image active severe weather and emergency alerts image image weather storm and storm spotter reports image weather observation monitoring service image
Local
Radar
Active
Alerts
Storm Reports Obs
Monitoring

Sign-up For Email & Text Message Weather Alert Notification Services



Advertise Here

Observation History for St. Louis, Spirit Of St. Louis Airport, MO


Time Wind
(mph)
Vis
(mi)
Weather Precip (in) Temperature (F) Relative
Humidity
Wind
Chill
(F)
Heat
Index
(F)
Pressure
Air Dwpt altimeter
(in)
sea level
(mb)
Rmks
11:54 pm CST E 3.5 6.00 Rain Fog/Mist 00.06 51.0 48.0 89% NA NA 29.84 1010.6
10:54 pm CST SE 6.9 7.00 Light Rain Trace 50.0 48.0 93% 47 NA 29.88 1011.9
9:54 pm CST 4.6 2.50 Heavy Rain Fog/Mist 00.07 51.0 46.9 86% 50 NA 29.90 1012.7
8:54 pm CST SE 5.8 10.00 Mostly Cloudy -- 53.0 44.1 72% 51 NA 29.91 1013.1
7:54 pm CST SE 8.1 10.00 A Few Clouds -- 54.0 43.0 67% 52 NA 29.93 1013.9
6:54 pm CST E 9.2 10.00 Fair -- 55.0 43.0 64% 52 NA 29.93 1013.8
5:54 pm CST E 6.9 10.00 Fair -- 56.0 42.1 60% 54 NA 29.94 1014.2
4:54 pm CST E 8.1 10.00 Fair -- 58.0 42.1 56% 56 NA 29.94 1014.1
3:54 pm CST E 8.1 10.00 Fair -- 59.0 41.0 51% 58 NA 29.95 1014.3
2:54 pm CST E 8.1 10.00 Overcast -- 60.0 39.9 48% 59 NA 29.97 1015.1
1:54 pm CST SE 6.9 10.00 Fair -- 60.0 39.9 48% 59 NA 29.99 1015.6
12:54 pm CST SE 6.9 10.00 Fair -- 59.0 37.9 46% 58 NA 30.01 1016.2
11:54 am CST E 10.4 10.00 Fair -- 58.0 37.0 46% 56 NA 30.05 1017.6
10:54 am CST SE 5.8 6.00 Fair with Haze -- 54.0 37.9 55% 53 NA 30.05 1017.8
9:54 am CST N 0.0 10.00 Fair -- 51.0 41.0 69% NA NA 30.07 1018.3
8:54 am CST N 0.0 6.00 Fog/Mist -- 43.0 39.0 86% NA NA 30.06 1018.4
7:54 am CST N 0.0 6.00 Fog/Mist -- 33.0 33.1 100% NA NA 30.04 1017.6
6:54 am CST N 0.0 0.13 Freezing Fog -- 28.0 26.1 92% NA NA 30.01 1016.8
5:54 am CST N 0.0 0.50 Freezing Fog -- 29.0 28.0 96% NA NA 30.00 1016.5
4:54 am CST N 0.0 0.25 Freezing Fog -- 31.0 28.9 92% NA NA 29.99 1016.0
3:54 am CST N 0.0 1.00 Fog/Mist -- 35.0 33.1 93% NA NA 29.96 1014.9
2:54 am CST SW 3.5 10.00 Fair -- 35.0 34.0 96% NA NA 29.94 1014.3
1:54 am CST W 5.8 10.00 Fair -- 42.0 37.9 85% 38 NA 29.93 1013.8
12:54 am CST SW 8.1 10.00 Overcast -- 45.0 41.0 86% 41 NA 29.91 1013.1

Regional Weather Observation


St. Louis, Spirit Of St. Louis Airport, MO (KSUS)

Rain Fog/Mist
51.0 F

St. Louis Lambert International Airport, MO (KSTL)

Light Rain
52.0 F

Washington Regional Airport, MO (KFYG)

Light Rain
50.0 F

St. Louis Regional Airport, IL (KALN)

Light Rain and Breezy
49.0 F

St. Louis Downtown Airport, IL (KCPS)

Rain Fog/Mist
50.0 F

Pittsfield, Pittsfield Penstone Municipal Airport, IL (KPPQ)

Thunderstorm
48.0 F

Advertise Here


Advertise Here